Location: Newark
(48.6461°N, 4.3644°W)
Time: 04:08:54
(UTC+00:00)

ISS - Visible Passes

Search period start: 07 December 2019 00:00
Search period end: 17 December 2019 00:00
Orbit: 411 x 421 km, 51.6° (Epoch: 07 December)

Date Brightness Start Highest point End Pass type
(mag) Time Alt. Az. Time Alt. Az. Time Alt. Az.
07 Dec -3.3 18:12:23 10° WNW 18:15:42 58° SSW 18:17:00 32° SE visible
08 Dec -3.7 17:23:53 10° WNW 17:27:14 82° SSW 17:30:36 10° ESE visible
08 Dec -1.3 19:01:12 10° W 19:03:36 18° SW 19:03:59 18° SSW visible
09 Dec -1.7 18:12:21 10° W 18:15:16 27° SW 18:18:10 10° SSE visible
10 Dec -2.4 17:23:41 10° WNW 17:26:53 41° SSW 17:30:03 10° SE visible
11 Dec -0.5 18:13:05 10° WSW 18:14:37 13° SW 18:16:09 10° SSW visible
12 Dec -0.8 17:23:49 10° W 17:26:18 19° SW 17:28:47 10° S visible
